NOAA 17 DEB, 48611

Orbit data source: Space-Track

NOAA 17 DEB, 48611 is space debris in SSO originally from a launch on Mon, 24 Jun 2002 UTC launched from the Air Force Western Test Range (AFWTR). Debris objects in space refer to the collection of defunct objects orbiting the Earth. Examples of debris include non-operational satellites, rocket bodies, and fragments generated from explosions, collisions, or faulty payload assembly.

Loading next visibility...
Identifier
48611, 2002-032AC
Orbit
SSO
Country
Flag of USUS
Related business
Manufacturer
Unknown
Mission
Spacecraft
Bus & Motor
Unknown
Mass
Unknown
Launch date (UTC)
2002-06-24 (23 years ago)
Launch vehicle
Unknown
Launch site
Air Force Western Test Range (AFWTR)
Object type
Payload
Rocket body
Debris
Shape & HBR
Unknown shape, 0.1 m
Radar Cross Section
Small (<0.1 m²)

Expand to show TLE details & history
Last TLE update: 2 days ago

TLE from 2 days ago
0 NOAA 17 DEB
1 48611U 02032AC  25347.88615208  .00012398  00000-0  28613-2 0  9991
2 48611  98.7306 326.4318 0007110  65.0277 295.1657 14.55379718244520
Epoch: 2025-12-13T21:16Z
TLE epoch observation values (Epoch: 2025-12-13T21:16:03.539Z)
Latitude
-0.00001°
Longitude
-75.38994°
Altitude
708.954 km
Speed
7.502 km/s
True Right ascension
21h 45m 43s
True Declination
0° 00' 00"
Sunlit
Object was in daylight at epoch
Visualization orbit readout
Latitude
Unknown
Longitude
Unknown
Altitude
Unknown
Speed
Unknown
Apparent Right ascension
Unknown
Apparent Declination
Unknown
Sunlit
N/A
Visualization observer readout
Local Sidereal Time
17:08:46
Azimuth
Unknown
Elevation
Unknown
Doppler factor
Unknown
Orbital elements
Apogee altitude
710.281 km
Perigee altitude
700.208 km
Semi-major axis
7,083.381 km
Eccentricity
0.00071
Inclination
98.7306°
RAAN
326.4318°
Arg. of periapsis
65.0277°
True anomaly
295.09193°
Mean anomaly
295.1657°
Eccentric anomaly
295.12882°
Mean motion
3.64068 °/min
Orbital period
98.88 mins
BSTAR
0.0028613
Loading maneuver chart data...
Computing Atmospheric mass density...
Loading historical data...
Loading historical data...
Loading historical data...
Loading historical data...
Loading historical data...
Loading historical data...
Loading historical data...

Documentation

Showing up to 5 results
|